User: anonymous   Login
Location: Drayton Valley
(53.2170°N, 114.9830°W)
Time: 15:24:58
(UTC-06:00)
Language:

MOZ.5/SAFIR/RUBIN 5/SL-8 - Orbit

View from above orbital plane
View from above orbital plane
View from above satellite
View from above satellite

Ground track
Ground track

The orbit data is extracted from the following two-line orbital elements,

1 28898U 05043G   17234.93173640 +.00000085 +00000-0 +26960-4 0  9997
2 28898 097.9359 021.8011 0019287 342.1856 017.8666 14.60190196252941
Epoch (UTC): 22 August 2017 22:21:42
Eccentricity: 0.0019287
inclination: 97.9359°
perigee height: 679 km
apogee height: 706 km
right ascension of ascending node: 21.8011°
argument of perigee: 342.1856°
revolutions per day: 14.60190196
mean anomaly at epoch: 17.8666°
orbit number at epoch: 25294

The dashed part of the orbit path shows where the satellite is in the earth's shadow,  

DLR